Wind_Speed
35 36 37 37 38 38 38 38 39 39 39 39 40 39 39 38 37 37 36 35 34 33 32 31 32 31 30 30 28 27 27 26 26 28 31 34 38 42 44 46 46 46 45 44 43 41 39 37 36 36 36 36 34 34 34 33 33 31 28 26 25 24 23 23 24 21 18 18 19 18 16 20 23 22 23 19 18 24 28 29 29 29 29 31 31 31 33 35
36 36 37 38 38 39 39 39 40 40 40 40 40 40 40 40 39 38 37 37 36 36 34 33 34 34 33 32 31 30 29 29 27 27 30 32 35 39 42 45 46 46 46 46 44 43 41 40 38 38 38 38 37 36 36 36 35 33 32 28 26 26 23 22 23 23 21 20 20 20 18 19 22 23 20 18 22 28 29 29 29 28 28 29 29 30 33 34
39 38 38 38 39 39 40 40 41 41 41 41 41 41 41 41 40 40 39 39 38 38 37 36 35 36 35 35 34 33 32 31 30 29 30 31 32 36 40 43 46 47 47 46 46 45 44 42 41 40 39 39 39 39 38 38 37 35 34 29 27 27 24 22 22 22 21 20 19 18 17 17 19 18 17 21 27 28 27 27 26 26 26 26 27 30 32 33
42 41 40 40 40 40 41 41 42 42 42 43 43 43 43 43 42 42 41 40 40 40 39 38 37 38 38 37 37 36 35 34 33 31 31 31 31 33 38 42 45 46 47 47 47 47 46 44 42 41 40 40 40 40 40 39 38 37 35 32 29 27 23 19 16 19 23 21 19 17 15 17 18 17 19 25 27 26 26 27 26 24 23 24 27 30 32 32
45 44 43 42 41 41 42 42 43 43 44 44 44 45 45 45 45 44 43 42 42 41 40 40 39 40 40 40 39 39 38 38 36 34 33 32 31 32 35 39 43 45 46 47 48 48 47 46 44 43 41 40 40 41 41 41 40 38 37 34 32 28 24 19 17 23 28 23 20 19 17 18 20 22 24 26 26 25 27 27 26 24 22 25 28 29 31 31
48 47 46 45 44 43 43 43 44 44 45 45 46 46 46 46 47 46 46 45 44 43 42 42 41 41 42 42 42 41 41 41 39 38 36 34 33 33 33 36 40 43 45 46 48 48 48 48 47 45 43 42 41 41 41 41 41 40 38 36 34 30 26 23 22 28 32 26 23 22 20 20 22 25 25 26 27 25 26 27 26 25 24 26 28 28 29 29
50 50 49 48 47 46 46 45 45 46 46 47 47 47 47 48 48 48 47 47 46 46 44 44 43 43 43 44 44 43 43 44 42 41 39 37 36 35 34 35 38 41 43 45 47 48 49 49 49 47 45 44 43 42 41 42 42 42 40 39 37 33 29 27 25 25 27 24 22 20 19 20 24 27 25 26 27 24 25 26 27 26 26 26 27 27 27 28
53 53 52 52 51 50 49 48 48 48 48 48 48 49 49 49 49 49 49 48 48 47 47 46 46 45 45 45 46 45 46 46 45 44 43 40 39 38 37 36 37 40 41 43 45 47 49 50 50 49 48 46 45 43 43 42 44 43 42 41 39 36 32 31 30 27 23 20 21 22 21 24 27 27 26 25 25 24 24 26 26 26 25 26 26 26 27 28
55 55 55 55 54 54 53 52 51 50 50 50 50 50 50 51 51 51 50 50 49 49 49 48 48 47 47 47 47 47 48 48 47 47 46 44 42 42 40 38 38 39 41 42 43 46 48 50 50 50 49 48 46 45 45 44 45 44 43 42 41 40 35 32 32 31 27 22 22 26 27 30 30 25 25 25 24 24 24 25 24 24 25 26 25 26 27 27
57 57 57 57 56 56 56 55 55 54 53 53 52 52 52 52 52 52 52 52 51 51 50 50 50 49 49 49 48 49 50 49 50 50 48 47 46 44 43 42 40 40 41 42 42 43 46 48 49 50 50 50 49 48 48 48 46 45 46 45 44 44 40 34 31 29 30 27 28 32 31 29 29 26 26 26 25 24 21 20 21 23 25 25 25 26 26 26
60 59 59 59 59 58 58 58 58 58 57 56 55 55 54 54 54 54 54 54 53 53 52 52 51 51 51 50 50 51 51 50 52 52 51 50 49 47 46 45 43 42 42 42 42 42 44 46 47 49 50 52 52 51 51 50 48 48 49 48 48 48 46 42 38 34 33 33 37 39 35 32 31 30 29 26 26 25 20 17 20 24 25 25 26 26 25 26
63 62 62 62 61 61 61 61 61 60 60 59 59 58 57 57 56 56 55 55 55 55 54 54 53 53 53 52 52 53 53 52 53 53 53 53 51 51 49 48 47 45 44 43 43 43 42 43 45 48 50 52 52 52 52 51 51 51 50 50 50 50 50 49 47 43 37 37 42 43 39 36 33 32 30 27 28 28 24 22 24 24 23 25 25 24 24 25
67 66 65 65 65 64 64 64 64 63 63 63 62 61 61 60 59 58 58 57 57 56 56 56 56 55 54 54 54 55 55 55 55 54 54 54 54 53 52 51 50 48 47 45 45 44 42 42 43 46 48 50 52 52 53 54 54 54 53 52 51 51 52 52 51 49 42 37 40 41 39 37 35 34 32 30 30 30 28 26 24 22 23 25 25 25 23 23
70 70 69 69 68 68 68 67 67 67 66 66 65 65 64 63 63 62 61 60 59 59 58 57 57 57 56 56 56 56 56 56 56 56 56 56 56 56 55 54 53 51 50 48 47 46 44 42 42 44 46 49 50 50 54 56 56 55 54 53 52 52 53 53 52 52 48 42 38 38 36 34 34 34 32 31 32 31 29 25 23 23 25 25 25 23 20 20
72 72 72 72 72 71 71 71 70 70 70 69 69 68 67 67 66 65 64 63 62 61 60 60 59 59 59 58 58 58 58 58 58 58 58 57 58 58 57 56 56 55 53 51 50 49 47 45 44 43 44 48 48 49 54 56 55 55 54 55 55 55 55 54 53 52 51 47 43 41 36 32 32 33 33 33 34 33 29 26 25 25 24 24 24 20 18 21
72 72 73 73 73 73 73 74 74 73 73 73 72 72 71 70 69 69 68 67 66 64 63 62 62 61 61 60 60 60 60 60 60 60 59 59 59 59 59 59 58 58 56 54 53 51 50 48 47 44 44 46 46 48 52 52 52 53 54 57 57 57 56 54 53 52 50 47 45 44 40 38 36 34 35 35 34 34 30 29 28 25 22 23 24 22 22 23
71 72 73 73 73 73 74 74 75 75 76 76 76 75 75 74 73 72 72 71 69 68 67 66 65 64 63 62 62 62 62 62 62 62 62 61 61 61 62 61 60 60 59 57 56 54 53 51 50 48 46 46 46 47 49 48 48 51 54 58 58 57 57 54 53 53 51 48 46 45 43 41 39 36 37 36 34 33 31 30 29 26 22 22 25 25 25 25
70 72 73 73 73 73 74 74 75 75 76 77 78 78 78 78 77 76 75 74 73 72 71 69 68 67 65 65 64 64 64 64 64 64 64 64 63 63 63 62 62 62 61 60 59 58 56 54 53 50 48 47 45 45 46 46 48 51 55 58 58 57 56 55 55 54 52 50 49 49 46 44 41 39 40 39 36 33 33 33 31 28 26 24 25 27 28 26
66 69 72 73 74 74 74 75 75 75 76 77 78 79 79 79 80 80 79 78 77 76 75 74 72 70 69 68 67 67 66 66 66 66 66 66 65 65 65 64 64 64 63 62 62 61 59 57 55 51 49 50 49 48 49 50 51 53 55 57 57 56 55 55 56 55 53 51 50 49 49 48 45 43 42 42 39 36 34 35 35 32 30 26 25 28 28 22
66 67 69 71 73 74 75 76 76 76 76 77 78 79 80 80 81 81 81 81 81 80 79 77 76 74 73 72 71 69 69 68 68 67 68 68 68 67 67 66 66 65 65 64 65 64 62 60 56 53 53 55 55 53 53 53 52 53 54 54 54 54 54 54 55 55 53 53 51 49 49 50 48 46 44 43 43 40 38 38 35 32 30 27 27 29 24 18
68 68 69 70 71 73 75 76 77 78 78 78 79 79 80 80 81 82 82 83 83 82 82 81 80 78 77 77 75 73 72 71 70 69 70 70 70 69 69 68 67 67 66 67 67 66 64 61 58 58 59 59 58 56 55 54 52 52 51 50 51 50 51 52 53 54 53 53 52 50 50 50 49 48 46 45 44 41 40 39 35 32 30 28 28 26 21 17
69 70 71 72 73 73 74 75 77 78 79 80 80 81 81 81 82 82 83 83 84 84 84 83 82 82 81 81 79 78 76 74 73 72 71 72 72 71 70 70 69 69 69 69 68 67 65 63 62 63 64 62 60 58 57 56 53 52 50 50 50 49 49 50 51 51 50 50 50 50 49 47 47 47 45 45 45 42 41 40 38 36 32 30 30 25 21 20
72 72 73 74 75 75 76 76 77 78 79 80 81 82 83 83 83 83 83 84 85 85 85 85 84 84 84 84 83 82 80 79 77 75 74 74 74 72 72 72 71 71 71 71 70 68 67 66 66 68 68 66 63 61 60 58 56 52 50 51 51 49 48 48 48 48 48 48 47 48 48 47 46 45 44 44 44 42 41 41 40 37 31 30 30 22 18 21
75 74 75 75 76 77 78 78 79 79 80 80 81 83 83 84 84 84 84 85 85 85 85 86 85 86 86 86 86 85 84 83 81 79 78 77 75 73 74 74 74 73 73 72 72 70 69 69 70 71 71 69 66 64 63 61 58 54 53 54 53 51 49 47 46 46 46 44 44 45 45 45 44 44 43 41 41 40 39 40 40 36 31 31 30 22 17 20
77 78 78 78 78 78 79 79 80 80 81 81 82 83 83 84 85 85 86 86 86 86 86 86 86 87 87 87 87 87 87 86 84 84 83 81 79 77 76 76 76 75 75 74 74 72 71 72 73 73 73 71 69 67 65 64 61 57 56 57 57 54 51 48 46 45 44 42 41 40 39 39 40 40 41 40 39 39 37 38 39 37 35 33 32 26 21 21
73 77 79 80 81 81 81 81 81 81 82 82 82 83 83 83 84 84 85 86 87 86 87 86 86 87 88 88 89 89 89 88 87 87 86 85 83 81 80 79 78 78 77 77 75 74 73 74 75 75 74 73 71 69 68 66 63 60 59 60 60 57 53 49 47 45 43 42 39 38 36 37 37 36 37 39 39 39 37 37 39 40 39 38 36 30 27 27
62 67 72 77 80 82 84 85 85 84 84 85 84 84 85 84 85 84 84 87 86 84 86 87 86 87 88 88 90 90 89 89 89 88 89 88 87 85 84 83 81 80 79 78 76 75 75 75 76 76 76 74 73 71 70 69 66 64 63 64 63 60 55 51 48 47 45 42 39 38 37 36 35 34 35 36 37 37 38 39 42 44 43 42 40 34 31 31
52 56 60 65 71 75 79 82 84 85 86 87 87 87 87 87 87 87 86 88 86 82 84 88 88 88 88 89 90 90 90 90 90 89 90 91 90 89 89 87 86 84 82 80 78 77 77 77 77 78 78 76 75 74 74 73 70 68 68 68 65 62 57 51 49 48 46 43 40 39 38 35 33 33 34 33 33 35 37 40 43 46 45 45 44 39 34 31
45 48 52 55 60 64 68 72 75 78 80 82 84 85 86 87 87 87 88 90 88 84 85 88 88 88 88 89 90 90 90 90 90 90 91 92 91 92 92 91 89 88 86 83 80 80 79 78 79 80 79 77 77 77 77 76 74 72 72 70 67 64 60 55 51 49 47 44 41 40 39 36 35 35 33 31 31 33 37 41 44 46 46 45 46 42 35 31
38 40 42 45 49 52 56 59 62 66 69 71 73 75 77 79 80 81 84 86 84 83 85 86 86 87 88 89 90 90 90 91 91 91 92 93 92 93 94 93 93 93 90 87 84 82 81 80 81 80 79 78 79 79 80 79 76 75 75 73 70 67 63 59 54 53 50 46 43 41 41 39 37 36 34 32 32 33 37 41 44 48 48 47 47 43 37 32
35 35 36 37 40 42 44 47 50 53 56 58 60 63 65 67 68 71 73 75 75 76 79 81 83 87 89 90 90 89 90 92 92 92 92 93 93 94 95 95 96 95 93 90 88 86 85 83 81 80 80 81 80 80 81 79 77 78 78 75 73 69 66 62 58 55 51 46 44 44 43 42 39 38 36 34 33 33 36 40 45 49 50 49 48 45 40 35
36 36 36 36 37 38 39 40 41 42 44 47 49 52 54 56 58 61 63 65 65 66 71 74 78 83 85 89 90 88 90 93 92 92 94 93 93 95 97 97 96 95 94 94 93 92 89 86 83 82 83 83 82 82 81 79 80 82 81 78 76 71 68 66 61 57 51 47 48 48 46 43 41 41 40 37 35 33 34 39 44 48 50 50 48 45 41 38
38 38 37 37 38 39 39 39 39 39 39 41 43 45 47 49 51 55 57 57 58 60 64 68 72 75 79 85 87 85 90 93 91 92 94 94 95 96 97 98 97 96 97 97 96 95 93 90 87 85 85 84 83 83 83 81 82 83 82 80 77 73 71 69 64 59 53 51 52 52 48 44 42 44 43 39 37 35 33 37 42 48 50 48 46 44 43 41
39 39 39 38 39 40 40 40 40 40 39 40 40 41 43 45 47 52 53 52 54 57 59 62 66 69 73 79 81 82 89 92 90 92 94 95 97 98 99 99 97 97 98 98 97 96 95 93 91 89 88 87 85 84 84 85 85 85 83 82 80 77 74 72 68 63 58 56 57 56 50 46 45 46 45 42 40 37 34 35 40 48 49 45 43 43 43 43
40 40 40 39 39 40 41 41 41 41 41 41 41 41 42 43 46 49 49 49 52 54 56 59 62 64 67 71 74 78 84 87 88 91 95 96 98 100 102 99 96 96 98 98 98 98 97 97 96 94 92 91 88 85 86 88 88 87 85 84 82 78 76 75 72 68 63 61 61 59 52 49 49 49 48 45 41 38 35 34 38 44 44 42 43 44 44 43
40 39 39 39 40 40 41 41 41 42 42 42 42 42 43 45 46 47 48 48 50 52 53 56 58 60 63 66 68 72 77 82 85 88 93 97 98 101 102 98 95 97 98 99 101 100 99 99 99 98 96 95 92 88 88 91 91 89 87 85 83 80 78 78 77 73 67 64 63 60 55 53 53 51 50 47 43 41 38 35 37 41 43 43 44 46 46 44
38 37 37 38 38 39 40 41 41 41 42 42 42 43 44 46 46 47 48 48 49 51 52 53 54 57 59 62 65 67 71 76 78 82 88 94 97 100 100 96 94 97 100 101 102 102 101 100 100 100 99 98 96 92 90 93 93 90 88 86 84 83 82 82 81 77 71 66 64 62 59 57 55 52 52 49 45 44 42 38 37 40 44 45 44 46 47 46
34 34 34 34 35 35 36 37 37 38 40 40 41 41 43 45 45 46 48 48 49 51 52 52 53 55 58 61 62 62 64 70 73 76 82 89 94 97 97 96 94 97 102 103 103 103 102 101 101 101 101 100 99 95 93 94 94 92 89 88 87 87 85 85 84 79 73 70 68 65 62 60 57 54 55 52 47 48 46 40 38 40 44 45 44 47 48 47
30 30 30 30 30 30 30 31 32 33 35 36 37 38 39 41 42 44 45 46 48 49 51 52 53 54 57 59 59 60 62 66 69 71 76 84 90 93 95 96 95 98 103 104 105 105 105 103 103 104 103 102 102 100 98 97 96 93 90 89 89 89 87 86 85 81 77 74 71 68 64 62 60 58 57 55 51 52 49 41 38 41 46 47 48 49 49 48
28 28 27 27 27 27 27 27 28 29 30 31 32 34 35 37 39 40 42 43 45 47 48 51 51 52 55 57 59 60 61 63 66 69 75 80 84 88 91 92 94 97 101 104 106 107 107 105 104 105 106 105 104 103 102 100 99 96 93 91 90 90 87 86 86 84 81 78 74 71 67 64 63 61 60 59 56 54 50 44 40 43 48 51 52 51 50 50
27 26 26 25 25 25 25 26 26 26 28 29 30 31 33 35 36 37 39 40 42 44 45 47 48 50 52 55 56 58 59 61 64 69 73 76 78 81 84 86 90 95 100 104 107 109 108 106 104 107 109 107 105 105 104 103 104 102 98 95 93 91 90 88 86 84 82 79 77 74 70 68 67 65 64 63 59 55 53 49 45 45 49 53 55 54 51 51
26 25 25 24 23 23 23 24 24 25 26 27 28 29 31 32 33 35 36 37 39 41 42 43 45 47 49 51 53 55 57 60 63 67 70 73 75 76 77 80 86 92 97 103 108 109 108 106 105 107 110 108 107 108 108 108 109 107 104 100 97 95 93 90 87 85 83 81 80 78 74 73 72 70 67 65 62 59 57 55 50 48 51 56 58 57 55 53
26 24 24 23 22 22 23 23 23 23 24 25 26 28 29 30 31 33 34 35 36 38 39 40 42 44 45 47 49 52 55 57 60 64 67 70 74 73 74 78 82 88 95 103 108 108 107 107 107 109 110 109 108 109 109 108 110 111 108 104 100 97 96 93 89 88 87 85 84 82 78 76 76 73 69 67 65 62 61 58 53 49 52 57 60 59 57 55
25 24 23 22 21 21 22 22 22 23 23 24 25 26 27 28 30 31 32 33 34 36 37 37 40 41 42 44 47 49 52 54 58 62 64 68 72 73 73 77 80 84 94 101 105 105 105 107 108 110 112 111 109 110 109 108 110 110 109 106 102 100 99 96 93 93 92 89 88 87 83 79 79 76 71 69 67 65 64 61 56 52 53 57 60 61 59 56
24 23 22 21 20 20 21 21 21 22 23 24 25 26 27 28 30 31 32 32 33 34 35 36 38 39 40 42 45 47 50 52 56 60 63 66 70 71 72 75 77 83 92 98 100 102 103 106 108 110 113 112 111 113 113 112 111 110 110 109 106 104 103 98 95 96 94 91 90 89 85 82 82 78 73 71 70 67 65 63 60 57 56 58 61 65 64 59
23 22 21 20 20 20 20 20 21 22 22 23 25 26 27 28 29 31 31 32 32 33 35 35 36 38 40 41 43 45 48 51 54 58 60 64 67 68 69 71 74 82 89 93 95 99 101 104 107 110 113 113 113 114 115 114 113 112 114 113 111 109 106 101 98 96 94 92 91 89 86 85 84 81 77 74 72 70 68 67 64 61 59 58 61 65 65 60
23 21 20 20 20 19 20 20 20 21 22 23 25 26 28 28 29 31 32 32 33 34 35 36 37 38 40 42 43 45 47 50 53 55 57 59 63 65 66 68 72 78 84 88 92 95 98 101 105 109 112 114 114 114 114 113 113 113 116 117 115 112 107 102 98 95 93 92 91 89 88 89 87 83 81 78 75 73 71 69 67 65 63 61 60 64 66 63
22 21 20 20 19 19 19 20 20 21 22 23 25 26 27 28 30 31 32 33 34 35 36 37 38 39 40 42 43 45 47 49 51 52 53 56 59 62 63 65 69 74 78 83 89 92 94 97 102 106 110 113 115 115 114 114 114 115 118 119 117 113 107 102 97 94 94 92 89 88 91 91 88 85 82 79 77 76 75 72 71 70 67 62 60 62 66 68
23 21 20 20 19 19 19 20 20 21 22 23 25 26 27 29 30 32 33 34 35 36 37 38 39 40 41 42 43 44 45 48 49 49 50 54 56 57 59 62 65 68 73 79 85 89 91 93 98 104 108 112 115 115 114 114 116 118 119 119 116 112 110 106 101 99 98 94 90 92 94 92 89 87 86 82 80 80 79 78 77 75 70 65 62 62 66 71
23 21 20 19 19 19 20 20 20 21 22 23 24 26 27 29 30 31 33 34 35 37 38 38 39 40 41 42 43 43 44 45 47 47 49 52 53 52 54 57 59 63 69 75 81 86 88 90 95 101 105 110 113 113 112 113 115 118 120 118 115 113 111 109 106 105 102 97 94 96 96 92 90 90 90 87 83 82 83 83 80 76 71 68 65 63 66 71
25 22 20 19 19 19 20 20 20 21 22 23 24 25 27 28 30 31 33 34 35 36 37 38 39 39 39 39 40 41 43 44 44 45 47 50 49 48 49 51 53 57 64 72 78 82 85 88 92 97 102 107 111 113 112 113 116 118 118 116 116 115 112 110 110 109 105 100 97 98 96 93 92 92 92 89 86 86 87 86 82 78 72 69 66 64 65 68
26 22 20 18 18 18 19 19 20 20 21 22 23 25 26 28 29 31 32 34 35 36 36 37 37 37 36 36 37 39 40 41 41 41 44 47 46 45 45 47 48 52 60 67 73 76 80 84 89 94 98 103 109 113 113 115 117 118 116 115 116 116 114 112 112 111 109 105 101 100 98 96 96 96 94 92 90 90 91 89 85 81 76 72 70 67 66 68
Wind_Direction
265 262 260 258 256 254 252 251 251 250 250 249 249 248 248 248 247 247 247 247 246 245 241 236 231 227 224 222 221 222 221 217 217 219 219 220 221 221 222 223 223 223 222 221 220 219 218 218 219 219 220 220 221 224 226 228 230 230 230 229 228 228 226 227 230 237 247 251 253 254 250 257 268 275 278 281 290 302 308 311 313 316 318 319 322 327 331 334
266 264 262 259 257 255 253 252 250 250 249 248 249 248 248 248 247 246 246 246 246 245 242 239 234 229 226 223 222 222 222 219 216 218 219 219 221 222 222 223 223 223 223 222 221 219 218 217 217 218 218 219 220 221 224 226 229 230 230 229 228 230 229 230 239 247 251 254 256 254 252 259 266 268 272 279 293 303 306 308 310 313 314 316 321 326 331 333
265 264 263 261 259 257 254 252 251 250 249 248 247 247 247 247 247 246 245 245 244 244 242 240 236 231 229 226 223 222 222 222 217 217 219 218 220 223 223 223 223 223 223 223 222 221 219 218 217 217 218 218 219 220 222 225 227 229 230 229 227 230 234 238 248 256 255 254 256 255 253 254 258 263 276 290 297 301 302 304 308 311 312 315 320 325 331 332
264 264 263 262 260 258 256 254 252 251 249 248 247 246 247 246 246 246 245 244 244 243 241 240 237 233 230 228 226 223 222 223 219 218 219 217 218 222 224 224 224 224 224 224 223 222 221 220 219 218 218 219 220 221 222 224 226 228 230 230 229 229 230 235 243 252 252 250 251 254 252 246 253 267 281 290 295 297 297 301 305 308 309 313 320 324 329 331
262 262 262 261 260 258 256 254 252 251 250 249 248 247 246 246 245 245 244 243 243 242 241 239 237 234 231 229 228 225 224 223 220 219 219 217 217 220 224 225 224 224 224 224 224 224 222 222 221 219 219 219 220 221 222 224 226 227 230 231 231 227 223 221 222 231 240 249 250 248 255 257 264 276 283 287 290 294 295 298 302 304 303 311 319 323 326 329
261 261 261 260 260 258 257 255 253 252 250 249 248 247 246 246 245 244 244 243 242 241 240 239 237 235 232 230 229 228 227 224 221 220 219 218 217 217 222 225 225 224 224 224 224 224 224 223 222 221 219 219 219 220 222 224 226 227 228 230 230 225 220 219 220 225 233 247 252 248 255 261 269 276 278 281 284 287 290 294 298 299 300 309 317 321 324 327
261 261 260 259 259 258 257 256 254 252 251 249 248 247 246 246 245 244 243 242 241 240 240 239 237 236 233 231 229 229 229 226 222 221 219 219 218 217 219 223 225 224 223 224 224 224 225 224 224 223 221 220 220 220 221 222 225 227 227 229 230 227 223 219 219 226 233 242 249 253 259 262 270 273 271 275 279 283 287 289 292 294 298 306 313 318 322 325
262 261 261 260 259 258 257 256 255 253 252 250 249 247 246 245 245 244 244 242 241 240 239 238 237 236 234 232 230 229 230 227 224 222 219 219 220 218 217 220 224 225 223 223 224 224 225 225 224 224 223 222 221 220 220 221 223 225 226 229 231 230 227 221 216 218 226 236 246 253 254 250 255 263 267 269 274 280 282 284 286 289 295 304 310 314 318 321
263 262 261 261 260 259 258 257 255 254 253 251 250 248 247 246 245 244 243 243 241 240 239 238 237 236 235 233 232 231 230 228 226 224 221 219 221 220 218 218 221 224 223 221 223 224 225 225 225 225 225 224 223 222 222 222 222 223 225 227 229 229 227 226 221 216 223 230 235 245 249 247 248 255 261 264 270 276 279 283 284 287 295 302 307 310 313 317
263 262 261 261 260 260 259 258 257 255 254 252 251 250 248 247 245 244 243 243 242 241 239 238 237 236 235 234 233 232 231 229 228 226 223 221 220 221 220 218 220 222 224 221 221 223 224 225 225 226 226 226 225 224 223 222 221 222 223 223 225 227 225 226 224 218 223 226 225 235 244 249 252 256 261 268 271 270 275 277 277 286 293 298 302 305 308 312
263 262 261 261 260 259 259 258 257 256 255 254 253 251 250 248 247 245 244 243 242 241 240 238 237 235 235 234 233 234 232 230 229 226 225 223 221 222 221 220 219 221 223 222 220 221 223 224 224 225 225 226 226 225 225 224 223 222 222 222 222 225 225 225 225 221 224 229 232 237 242 247 251 255 262 269 270 270 269 264 273 284 289 295 299 300 304 310
263 262 261 260 259 259 258 257 257 256 255 254 253 252 251 250 249 247 246 244 243 242 241 239 238 236 235 233 233 233 232 232 231 227 226 225 223 222 222 221 220 220 222 223 221 219 220 223 223 224 224 225 226 226 226 226 225 225 224 223 222 223 225 226 226 225 225 230 235 239 242 245 247 251 256 259 263 268 265 265 278 283 288 298 297 295 301 307
263 261 260 259 258 258 257 256 256 255 255 254 253 252 251 250 249 248 247 246 244 243 241 240 239 237 236 234 233 233 232 232 232 229 227 226 224 223 223 222 221 220 221 222 222 219 218 220 222 224 224 225 226 226 227 226 226 226 225 225 224 225 226 227 227 226 225 228 234 237 239 242 245 249 251 251 254 259 261 266 272 275 286 294 290 290 298 307
263 262 260 259 258 257 257 256 255 255 254 254 253 252 251 250 249 248 247 246 245 244 243 241 240 238 237 235 234 233 233 232 232 231 229 226 225 224 223 224 223 221 221 222 222 221 218 218 220 222 223 224 224 225 227 226 226 226 226 226 226 227 227 228 229 229 228 229 233 237 237 240 244 246 248 248 250 254 258 262 264 271 283 288 286 288 296 309
263 262 260 259 258 257 256 256 255 254 254 253 252 252 251 250 249 248 248 247 246 245 243 242 241 240 238 237 235 234 234 233 232 231 230 228 226 224 224 224 224 222 221 221 222 221 219 218 218 220 223 224 223 225 227 227 228 228 228 228 228 229 228 228 230 231 232 231 233 236 237 238 238 241 245 247 249 250 254 259 261 268 278 284 285 285 296 310
262 261 260 259 258 257 257 256 255 255 254 253 252 251 250 250 249 249 248 247 246 245 244 243 241 240 239 238 236 235 235 234 233 231 230 229 228 226 224 224 224 223 222 222 222 221 220 219 218 218 221 223 223 225 227 227 228 229 229 229 229 229 230 230 231 232 233 233 235 237 237 237 235 238 241 245 246 246 251 256 260 265 271 280 281 280 296 306
263 262 260 259 258 257 256 256 255 255 254 253 252 251 250 250 249 248 247 247 246 245 245 244 242 241 240 239 237 236 235 234 234 232 231 230 229 227 226 224 224 224 223 222 222 222 221 219 218 218 219 222 223 225 227 226 226 227 227 228 228 229 230 230 232 233 233 234 236 237 236 236 236 235 237 241 241 243 250 252 257 262 263 273 274 275 291 299
264 263 262 260 259 257 256 255 255 254 254 253 253 252 251 250 249 248 247 246 246 245 245 244 243 242 240 239 238 237 236 235 234 234 232 231 229 228 227 225 224 224 224 223 222 222 222 220 219 218 219 221 222 224 226 225 224 225 227 228 228 229 230 231 232 233 233 234 235 237 236 236 236 235 236 239 241 245 249 250 255 257 259 267 267 271 285 290
263 263 263 261 260 258 257 255 254 254 253 253 252 252 251 251 250 249 248 247 245 244 244 243 243 242 241 240 239 237 236 235 235 234 234 232 230 229 228 227 225 224 224 223 223 222 222 222 220 218 219 221 220 220 223 224 224 226 228 229 229 229 230 231 233 233 233 234 235 236 236 236 237 237 237 240 243 246 246 250 255 256 257 261 262 270 278 277
262 262 261 261 260 259 258 257 255 254 253 252 252 251 251 250 250 249 248 247 246 245 244 243 242 242 241 241 239 238 237 236 235 235 234 234 232 230 228 227 226 225 224 224 224 223 222 222 221 219 220 222 220 219 222 223 225 227 228 229 229 229 230 231 232 233 233 233 234 235 236 237 237 238 239 242 246 246 245 250 254 253 252 258 263 266 264 263
261 260 260 259 259 258 257 256 256 255 254 252 252 251 250 249 249 249 248 247 247 245 244 243 242 241 241 241 240 238 238 236 235 234 234 234 233 232 230 228 227 226 225 225 224 223 222 221 221 221 221 222 221 220 222 223 224 226 228 229 229 228 229 229 230 231 231 232 232 233 235 236 237 238 240 241 243 244 244 247 248 246 251 260 260 255 251 258
260 259 258 258 257 257 256 255 255 254 254 253 252 251 250 250 249 248 248 247 247 246 245 243 242 241 240 240 240 239 238 237 235 234 234 234 234 233 232 230 227 226 226 226 225 223 222 221 221 222 222 222 222 221 222 223 223 225 226 228 228 227 228 229 230 230 230 231 232 232 232 234 235 236 238 239 239 239 241 244 244 245 251 254 250 245 249 255
258 257 256 255 255 255 255 254 254 253 253 253 252 251 251 250 249 248 248 247 247 246 245 244 243 242 241 240 239 239 238 237 236 235 234 234 234 233 233 232 229 227 226 226 225 224 222 221 221 222 223 222 222 222 222 223 222 223 225 227 228 226 227 229 230 230 230 230 231 231 232 233 234 234 234 237 238 238 238 241 243 245 243 240 237 233 236 249
259 258 256 255 254 254 254 254 253 253 253 252 252 252 251 250 250 249 248 248 247 246 245 245 244 243 241 240 239 238 238 237 236 235 235 234 233 233 233 233 231 228 227 226 225 224 223 222 221 222 223 223 223 223 223 223 222 221 223 227 227 225 224 226 227 229 229 230 231 232 233 233 234 234 233 234 235 235 233 233 236 236 229 227 227 220 214 237
260 259 259 258 257 256 256 255 255 254 254 253 253 253 252 251 251 250 250 249 248 247 246 245 244 243 242 241 240 239 238 237 236 236 235 234 233 232 232 233 232 230 228 226 225 224 223 223 222 223 223 223 222 223 224 224 222 220 222 226 227 226 224 223 225 227 227 227 228 230 231 231 232 232 232 231 230 231 228 227 227 222 216 220 225 219 205 214
261 260 259 259 259 259 259 258 257 257 256 256 255 255 255 254 253 252 251 251 249 248 247 246 244 244 243 242 241 239 238 237 236 236 236 235 234 233 232 232 232 231 230 227 225 224 224 224 224 223 223 223 222 223 224 225 224 221 222 225 228 227 224 222 223 225 225 224 224 223 224 225 226 225 225 226 225 226 224 222 218 211 210 219 223 216 203 207
265 263 261 260 259 259 259 259 259 259 258 258 258 257 257 256 255 254 253 252 251 249 249 248 245 244 243 242 242 240 239 238 236 236 236 235 234 233 232 232 232 231 231 229 227 225 223 224 225 224 223 223 222 222 223 224 224 223 223 225 227 228 225 221 221 222 223 222 219 219 220 221 221 220 219 220 221 220 219 218 215 210 211 218 223 218 210 214
269 266 264 262 260 259 259 258 259 259 258 258 258 258 257 257 256 256 255 254 253 250 249 249 247 245 243 242 242 241 240 238 237 236 236 235 234 234 233 232 232 231 230 230 228 226 224 224 225 225 223 222 222 222 222 223 223 223 224 225 226 227 226 222 221 222 222 220 217 217 219 218 217 218 216 216 217 215 214 215 215 215 215 217 221 220 215 216
273 270 267 265 263 261 260 259 259 259 258 258 258 258 257 257 256 256 255 254 253 251 249 248 247 246 244 243 242 241 240 239 238 236 236 235 234 234 233 232 232 231 230 229 228 228 226 224 225 225 224 223 222 222 222 222 222 223 224 225 225 226 226 223 220 220 221 220 217 216 217 216 214 216 214 212 214 213 212 213 214 216 215 215 219 220 217 214
280 276 272 269 267 265 263 262 260 260 259 258 258 257 257 256 256 255 254 253 253 251 249 247 247 246 244 242 241 240 240 239 237 236 236 235 234 234 234 233 232 231 230 229 228 228 227 225 225 225 225 224 223 223 223 222 222 223 225 225 225 225 225 223 219 218 219 219 216 215 216 215 214 216 215 211 213 214 214 212 211 212 213 215 218 219 216 212
288 284 280 277 273 270 267 265 263 261 260 259 258 257 256 256 255 254 253 252 251 250 248 246 245 244 244 242 240 239 239 238 237 236 235 235 234 233 233 233 232 231 230 229 228 228 227 226 225 224 224 224 224 224 224 223 222 224 224 225 225 225 225 224 221 218 217 217 218 216 215 214 214 217 218 214 214 214 215 213 210 210 213 217 219 219 217 213
293 289 286 283 279 276 273 270 266 263 261 260 258 257 256 255 254 253 252 251 250 248 247 245 243 242 242 242 239 237 238 238 236 235 235 234 234 233 233 232 231 231 231 229 228 227 227 226 226 224 224 224 223 223 224 223 222 224 224 224 225 225 225 225 222 218 214 215 220 218 215 213 213 218 219 216 217 217 216 214 209 207 211 215 219 220 218 213
293 290 286 283 280 277 275 273 270 267 264 262 260 258 257 255 255 253 251 250 249 247 246 245 244 242 241 241 239 237 238 237 235 235 235 233 233 233 233 232 231 231 231 229 228 227 227 226 225 225 225 224 223 223 224 222 222 224 224 224 224 224 225 226 224 220 213 213 219 219 215 212 214 219 219 217 220 219 217 214 208 207 211 215 218 217 213 210
292 288 285 281 278 275 273 271 269 267 265 263 261 259 258 256 255 254 252 250 249 246 246 246 244 243 241 241 240 238 238 237 234 235 235 233 233 233 232 231 230 230 230 230 228 227 227 226 225 225 225 224 223 223 224 223 222 223 223 223 223 222 224 225 224 220 214 212 218 219 214 212 215 220 220 218 220 221 219 214 207 208 212 213 213 212 210 209
291 288 284 281 277 274 271 269 267 265 263 262 260 259 257 256 255 255 254 252 249 247 245 245 245 244 243 241 239 238 239 237 234 234 235 233 232 232 232 230 229 230 230 230 229 227 226 226 225 224 224 224 222 221 223 224 223 223 222 222 222 221 221 224 224 221 216 213 216 217 213 212 216 219 220 219 219 222 223 217 209 206 207 208 210 210 210 209
291 287 284 280 277 274 271 269 267 265 263 261 259 258 256 254 253 254 253 251 250 249 246 245 245 244 244 243 240 238 239 236 234 234 235 234 233 232 231 229 228 229 230 229 229 227 226 226 225 224 223 224 223 220 222 224 224 223 222 222 221 220 220 222 224 222 218 214 215 216 213 213 216 218 220 218 217 222 223 220 213 205 202 205 207 207 208 207
293 289 285 281 277 274 272 269 267 265 263 260 258 256 255 254 252 252 252 251 250 250 248 246 245 245 244 243 241 240 239 237 234 234 235 234 233 233 232 229 228 229 230 229 229 228 225 225 225 224 223 223 223 221 221 224 224 223 222 221 220 220 219 221 223 221 218 215 215 216 214 214 215 217 220 218 215 220 221 219 214 204 202 205 205 205 207 206
296 292 288 284 280 276 272 270 267 265 263 261 259 257 256 255 253 252 251 250 249 249 249 247 245 245 244 243 242 241 241 239 235 234 235 235 233 232 232 230 227 228 230 229 228 228 226 224 225 224 223 222 223 222 221 224 225 223 222 221 220 220 219 220 222 221 218 216 214 214 215 215 214 216 220 218 215 219 220 217 214 206 202 204 205 206 207 205
301 297 292 288 284 280 275 271 268 265 263 262 260 257 255 255 254 252 251 250 249 249 249 248 245 245 245 244 243 240 240 240 238 235 235 235 233 232 231 229 227 226 229 229 228 227 226 223 223 224 223 221 221 221 221 223 225 224 223 222 221 221 219 219 220 219 218 216 215 214 214 216 214 214 219 219 215 218 219 215 213 208 202 202 204 206 206 205
306 300 296 292 288 283 279 274 270 267 264 261 259 257 256 254 253 252 251 250 249 248 248 247 246 245 245 245 244 241 239 240 239 238 237 234 233 231 230 229 227 226 228 229 228 227 226 223 222 223 223 221 221 220 220 221 223 223 222 221 222 222 221 220 220 219 217 216 215 213 213 216 216 214 216 218 215 217 218 215 213 209 203 202 203 205 205 204
308 303 299 295 290 285 281 276 272 269 265 262 260 257 256 254 253 252 251 250 250 249 248 248 247 245 245 245 244 243 241 239 238 239 240 236 233 232 230 229 228 227 227 228 227 227 226 223 222 223 223 220 220 220 219 220 222 222 221 220 220 221 221 220 219 220 218 217 216 214 212 214 216 214 215 217 215 215 216 214 211 209 205 203 203 204 204 204
309 304 299 295 291 287 282 277 274 270 267 264 262 259 257 255 253 252 251 250 249 249 249 248 248 246 245 245 244 244 242 240 238 239 241 239 234 231 230 228 227 227 227 228 227 226 225 223 222 223 223 221 219 220 218 218 220 221 220 219 218 218 219 218 218 218 218 217 217 215 212 212 215 214 214 216 215 213 214 213 210 208 206 204 204 203 203 205
310 304 300 296 292 287 283 279 275 272 268 264 262 259 257 255 254 252 251 250 249 249 249 248 248 247 246 245 244 244 243 242 240 239 240 240 236 231 229 228 226 226 227 227 227 226 224 223 221 222 223 221 219 220 219 218 219 221 220 219 218 218 218 217 215 216 217 216 216 216 213 212 215 214 213 215 215 213 214 214 210 208 207 206 204 202 203 205
310 305 300 296 292 287 283 280 277 274 270 266 262 259 257 256 255 254 253 252 251 251 250 249 248 248 248 247 246 245 244 242 242 242 240 240 238 233 229 226 225 226 227 226 226 225 223 223 221 221 222 221 218 219 219 218 219 221 221 220 218 218 218 216 214 214 215 214 215 215 213 212 214 213 211 214 215 214 215 215 211 209 209 208 204 202 205 206
312 306 300 296 291 286 282 280 277 273 270 266 262 259 257 255 255 254 254 253 252 252 252 252 251 251 249 249 249 248 247 245 244 243 242 241 239 236 232 228 224 226 227 227 226 224 223 222 222 221 222 221 219 218 218 217 217 219 221 221 219 218 218 217 215 214 214 213 214 215 213 212 213 213 211 212 214 214 215 215 212 209 210 209 205 205 206 206
315 309 302 296 290 286 282 279 276 272 269 264 260 258 257 255 255 256 256 255 255 254 255 255 254 255 254 252 251 251 251 249 247 246 244 244 242 239 235 231 227 226 228 228 226 224 222 221 221 221 221 221 220 218 217 217 216 216 219 220 219 218 218 216 215 215 214 213 214 214 213 213 213 212 211 211 213 214 213 214 213 210 210 210 208 207 206 205
319 312 304 297 292 287 283 279 276 272 268 264 261 259 259 258 258 258 258 258 257 257 257 257 257 257 257 256 255 255 254 254 253 251 248 247 245 241 237 233 230 228 228 228 227 225 222 221 220 220 221 221 220 219 217 217 216 216 218 218 218 218 218 217 215 216 216 215 214 213 214 214 213 212 211 211 212 214 214 215 214 212 210 210 208 206 205 204
324 316 306 300 295 289 284 279 276 272 269 265 263 261 261 260 259 259 259 259 259 258 258 259 260 260 259 259 259 258 258 259 258 256 254 251 247 244 240 235 232 230 228 228 228 226 223 220 220 220 220 221 221 219 217 215 215 216 218 218 217 216 216 217 216 216 217 217 215 214 215 214 213 213 213 212 212 214 214 214 215 214 211 209 208 206 206 206
328 320 310 304 298 292 287 281 276 273 270 267 265 263 262 260 260 260 260 260 261 260 259 259 260 262 262 262 262 262 262 263 262 261 258 254 249 246 242 238 234 232 230 228 228 227 224 220 219 219 219 220 221 220 218 215 215 216 217 219 218 216 214 214 214 215 216 215 214 215 216 214 212 212 212 211 211 214 214 214 215 214 211 208 207 206 207 209
332 324 316 308 301 295 291 285 279 276 273 271 269 266 265 264 263 263 263 263 263 262 262 262 261 262 262 264 265 266 266 266 266 265 262 258 252 247 244 240 235 232 231 228 227 226 224 221 219 218 218 219 221 220 218 216 215 216 217 217 218 217 215 213 212 213 215 213 212 214 216 215 213 212 212 210 209 213 215 215 215 215 211 209 208 206 206 209
334 329 320 311 303 296 291 287 283 279 276 274 273 272 271 270 268 267 266 265 265 265 265 265 265 265 265 266 267 268 269 269 269 268 265 261 256 251 246 241 236 232 230 229 227 225 223 221 219 218 216 217 220 220 218 217 216 215 216 216 216 216 215 214 212 212 212 212 212 213 215 214 213 213 213 211 209 212 216 216 214 214 212 210 209 208 208 209
336 332 324 314 305 297 291 287 284 282 280 278 277 276 276 274 272 272 271 269 269 269 269 269 269 270 270 270 270 270 270 271 271 270 268 264 259 254 248 242 235 230 228 228 227 225 223 221 219 217 216 215 218 219 218 217 216 215 214 215 216 216 214 213 213 212 211 211 211 212 213 214 213 212 212 211 209 211 215 216 214 213 212 210 209 209 208 208
Height
10920 10920 10920 10920 10921 10921 10922 10923 10924 10925 10926 10927 10928 10929 10930 10932 10933 10935 10937 10938 10940 10941 10943 10945 10947 10949 10950 10952 10953 10954 10955 10956 10958 10959 10961 10963 10964 10966 10968 10970 10973 10976 10979 10982 10985 10988 10991 10994 10997 10999 11001 11002 11004 11005 11006 11008 11009 11011 11013 11015 11016 11016 11017 11018 11019 11021 11022 11024 11025 11027 11031 11029 11024 11024 11024 11023 11022 11020 11020 11020 11019 11019 11018 11017 11016 11016 11014 11012
10916 10916 10916 10916 10917 10917 10919 10919 10920 10921 10922 10923 10924 10925 10926 10927 10929 10931 10932 10934 10936 10937 10939 10941 10943 10945 10947 10948 10950 10951 10952 10954 10955 10957 10958 10960 10962 10963 10965 10967 10969 10972 10975 10978 10982 10985 10988 10990 10993 10995 10997 10999 11001 11002 11004 11005 11006 11008 11010 11012 11014 11015 11016 11017 11018 11020 11021 11022 11023 11024 11027 11025 11023 11022 11022 11022 11022 11021 11021 11020 11019 11019 11018 11017 11016 11016 11015 11013
10911 10911 10912 10912 10912 10913 10914 10915 10916 10916 10917 10919 10920 10921 10922 10923 10924 10926 10928 10929 10931 10933 10935 10937 10939 10941 10943 10944 10946 10948 10949 10950 10952 10954 10955 10957 10959 10960 10962 10963 10966 10968 10972 10975 10978 10981 10984 10987 10989 10992 10995 10996 10998 11000 11001 11003 11004 11006 11007 11009 11011 11013 11016 11017 11018 11018 11019 11020 11022 11022 11023 11023 11022 11022 11021 11020 11020 11021 11021 11020 11020 11019 11018 11017 11017 11016 11015 11013
10906 10907 10907 10907 10908 10909 10910 10911 10911 10912 10913 10914 10915 10916 10917 10918 10920 10921 10923 10924 10926 10928 10930 10932 10934 10936 10938 10940 10942 10944 10946 10947 10949 10951 10952 10954 10956 10957 10958 10960 10963 10965 10968 10972 10974 10978 10981 10984 10987 10990 10992 10994 10996 10998 10999 11001 11002 11004 11005 11006 11009 11012 11015 11016 11018 11018 11018 11019 11020 11021 11022 11022 11021 11021 11022 11020 11019 11020 11020 11020 11019 11019 11019 11017 11017 11016 11015 11014
10901 10901 10902 10902 10903 10903 10904 10905 10906 10907 10908 10909 10910 10911 10912 10913 10914 10916 10918 10919 10921 10923 10925 10927 10929 10932 10934 10936 10938 10940 10942 10943 10946 10947 10949 10951 10953 10954 10955 10957 10959 10962 10965 10968 10971 10974 10978 10981 10984 10987 10989 10992 10994 10996 10998 10999 11001 11003 11004 11005 11007 11010 11013 11015 11017 11018 11017 11018 11019 11020 11020 11020 11019 11020 11021 11019 11020 11020 11019 11018 11018 11018 11018 11017 11017 11016 11015 11015
10895 10896 10896 10897 10897 10898 10898 10900 10901 10901 10902 10903 10904 10905 10907 10908 10909 10911 10912 10914 10916 10918 10920 10922 10924 10926 10929 10931 10933 10936 10937 10939 10942 10944 10946 10948 10949 10951 10952 10954 10956 10958 10962 10964 10967 10970 10973 10977 10980 10983 10986 10989 10991 10993 10996 10997 10999 11001 11002 11004 11005 11008 11011 11013 11015 11016 11016 11016 11017 11019 11021 11019 11017 11019 11020 11019 11019 11021 11019 11018 11018 11017 11017 11017 11017 11016 11016 11015
10890 10890 10890 10891 10891 10892 10892 10893 10894 10895 10896 10897 10898 10899 10901 10902 10903 10905 10906 10908 10910 10912 10915 10917 10919 10921 10924 10926 10928 10931 10932 10934 10937 10940 10942 10944 10945 10947 10949 10950 10952 10954 10958 10961 10963 10966 10969 10972 10975 10979 10982 10985 10988 10990 10993 10994 10996 10998 11000 11002 11003 11006 11009 11010 11013 11015 11017 11017 11014 11016 11020 11019 11016 11016 11018 11018 11019 11020 11019 11018 11017 11017 11017 11017 11017 11017 11016 11016
10884 10884 10884 10885 10885 10886 10886 10887 10888 10889 10890 10891 10892 10893 10895 10896 10897 10898 10900 10902 10904 10907 10909 10911 10914 10916 10918 10921 10923 10926 10927 10929 10933 10935 10938 10940 10941 10943 10945 10947 10948 10950 10954 10956 10959 10962 10965 10968 10971 10975 10978 10981 10984 10987 10989 10991 10992 10995 10998 11000 11001 11004 11007 11008 11010 11014 11017 11019 11015 11014 11018 11017 11015 11014 11014 11016 11017 11018 11018 11017 11017 11017 11017 11017 11017 11017 11017 11016
10877 10878 10878 10878 10879 10880 10880 10881 10882 10882 10883 10884 10885 10887 10888 10889 10891 10892 10894 10896 10898 10901 10903 10906 10908 10910 10913 10915 10918 10920 10921 10924 10928 10930 10933 10936 10937 10939 10941 10943 10945 10947 10949 10952 10955 10958 10960 10964 10968 10971 10975 10978 10981 10984 10986 10987 10989 10992 10995 10997 10999 11000 11004 11006 11008 11012 11016 11019 11017 11012 11012 11012 11013 11014 11012 11014 11016 11017 11016 11016 11016 11017 11017 11017 11017 11017 11017 11016
10870 10871 10871 10872 10872 10873 10874 10874 10875 10876 10876 10878 10879 10880 10881 10883 10884 10886 10888 10890 10892 10894 10897 10899 10902 10905 10907 10910 10913 10914 10915 10919 10921 10924 10928 10931 10933 10935 10937 10939 10941 10943 10945 10948 10951 10953 10956 10960 10964 10967 10971 10974 10976 10979 10980 10982 10985 10988 10989 10992 10994 10996 10999 11002 11005 11010 11014 11017 11015 11010 11008 11010 11012 11012 11011 11013 11016 11017 11017 11016 11015 11016 11017 11017 11017 11017 11017 11016
10862 10863 10864 10864 10865 10866 10866 10867 10868 10868 10870 10871 10872 10873 10875 10876 10878 10880 10882 10884 10886 10888 10890 10893 10895 10898 10901 10904 10907 10907 10910 10914 10915 10919 10923 10926 10929 10931 10933 10935 10937 10939 10941 10944 10947 10949 10953 10956 10960 10962 10965 10967 10970 10973 10976 10979 10982 10983 10984 10987 10990 10992 10995 10997 11001 11006 11010 11012 11010 11007 11008 11010 11011 11010 11011 11013 11013 11014 11016 11016 11015 11016 11016 11017 11017 11017 11017 11016
10853 10855 10856 10856 10857 10858 10859 10859 10860 10861 10862 10863 10865 10866 10868 10869 10871 10873 10875 10877 10879 10882 10884 10886 10889 10892 10894 10897 10900 10901 10904 10907 10908 10913 10917 10920 10924 10926 10928 10931 10933 10935 10937 10939 10942 10946 10949 10952 10954 10956 10959 10962 10965 10969 10972 10975 10978 10979 10982 10984 10986 10989 10991 10993 10996 11000 11004 11007 11005 11005 11007 11009 11010 11010 11011 11012 11011 11011 11013 11014 11015 11015 11016 11016 11016 11016 11016 11016
10843 10845 10846 10847 10848 10849 10850 10851 10851 10852 10854 10855 10857 10858 10860 10861 10864 10866 10868 10870 10872 10875 10877 10880 10882 10885 10888 10891 10893 10895 10898 10900 10902 10906 10910 10914 10917 10921 10923 10925 10928 10931 10933 10935 10938 10942 10945 10947 10949 10951 10955 10958 10961 10965 10967 10969 10971 10974 10977 10980 10983 10986 10987 10989 10992 10996 10999 11002 11001 11002 11006 11008 11008 11009 11010 11012 11012 11011 11012 11013 11014 11014 11015 11015 11015 11015 11015 11015
10833 10834 10836 10837 10839 10840 10841 10842 10843 10844 10845 10847 10849 10850 10851 10853 10855 10858 10860 10862 10865 10868 10870 10873 10876 10879 10881 10884 10887 10889 10891 10894 10897 10900 10903 10907 10911 10914 10918 10920 10923 10926 10929 10931 10934 10937 10940 10943 10944 10947 10950 10952 10957 10959 10959 10963 10966 10969 10974 10977 10980 10981 10983 10986 10988 10992 10995 10999 11000 11000 11004 11007 11006 11007 11008 11009 11010 11010 11011 11013 11013 11013 11014 11014 11014 11014 11014 11015
10822 10823 10825 10826 10828 10830 10831 10832 10833 10835 10836 10838 10840 10841 10843 10845 10847 10849 10851 10854 10857 10860 10863 10866 10869 10872 10874 10877 10880 10882 10884 10887 10890 10893 10896 10900 10904 10908 10912 10914 10917 10920 10924 10926 10929 10932 10935 10938 10940 10943 10945 10948 10953 10953 10953 10959 10963 10967 10971 10973 10975 10976 10979 10983 10986 10989 10992 10997 10998 10998 11002 11005 11005 11005 11005 11006 11007 11008 11010 11012 11012 11013 11013 11013 11013 11013 11013 11014
10811 10812 10813 10815 10817 10819 10820 10821 10823 10825 10826 10828 10830 10832 10834 10836 10838 10840 10843 10845 10848 10851 10854 10858 10861 10864 10867 10870 10873 10876 10878 10880 10883 10886 10889 10893 10897 10901 10904 10907 10911 10914 10918 10921 10924 10927 10930 10933 10936 10939 10941 10944 10947 10947 10950 10956 10960 10963 10965 10966 10969 10972 10976 10980 10983 10986 10990 10994 10996 10996 10999 11001 11002 11003 11003 11004 11005 11007 11009 11010 11010 11012 11012 11012 11012 11012 11012 11012
10801 10801 10802 10804 10805 10807 10809 10810 10812 10814 10815 10817 10819 10821 10823 10826 10828 10831 10833 10836 10839 10842 10845 10849 10852 10855 10859 10862 10865 10868 10871 10873 10876 10879 10882 10885 10890 10893 10896 10901 10905 10908 10912 10916 10919 10922 10925 10928 10931 10934 10937 10939 10942 10943 10948 10952 10954 10955 10956 10958 10964 10968 10972 10977 10980 10982 10986 10991 10992 10992 10996 10997 10999 11001 11000 11001 11003 11005 11007 11007 11009 11010 11010 11011 11011 11011 11011 11012
10791 10790 10791 10793 10794 10795 10797 10798 10800 10803 10804 10805 10807 10810 10813 10815 10818 10820 10823 10826 10830 10833 10836 10839 10843 10847 10850 10853 10857 10860 10863 10866 10868 10871 10874 10878 10882 10885 10889 10894 10898 10901 10905 10909 10913 10916 10919 10922 10926 10930 10933 10935 10938 10941 10943 10944 10945 10947 10950 10955 10961 10965 10969 10973 10975 10978 10982 10986 10987 10988 10991 10993 10995 10997 10997 10998 11001 11003 11005 11005 11007 11008 11009 11009 11009 11010 11010 11010
10780 10779 10780 10782 10783 10784 10785 10787 10789 10791 10792 10794 10796 10798 10801 10804 10807 10809 10812 10816 10819 10823 10826 10830 10833 10837 10841 10844 10847 10851 10855 10858 10861 10864 10867 10870 10874 10878 10882 10887 10891 10894 10899 10903 10906 10910 10914 10917 10922 10927 10929 10929 10931 10933 10934 10936 10939 10943 10947 10952 10957 10962 10966 10969 10971 10974 10978 10982 10983 10984 10986 10989 10991 10993 10995 10995 10997 11000 11002 11003 11004 11005 11006 11007 11008 11009 11009 11009
10770 10769 10768 10770 10771 10772 10773 10775 10777 10779 10781 10782 10784 10786 10789 10792 10795 10797 10801 10804 10808 10812 10816 10819 10823 10828 10831 10833 10837 10842 10846 10849 10853 10856 10859 10862 10865 10870 10874 10879 10883 10887 10892 10895 10898 10902 10907 10912 10918 10921 10920 10919 10923 10926 10927 10931 10936 10940 10944 10948 10953 10958 10961 10964 10966 10969 10973 10976 10977 10979 10982 10984 10987 10989 10991 10993 10993 10996 10998 10999 11001 11002 11004 11006 11007 11007 11007 11008
10758 10757 10757 10758 10758 10760 10761 10763 10765 10766 10768 10770 10772 10774 10776 10780 10782 10785 10789 10792 10795 10800 10804 10808 10813 10817 10821 10823 10827 10832 10836 10840 10845 10848 10851 10854 10857 10861 10866 10870 10876 10880 10884 10887 10890 10895 10902 10908 10913 10913 10912 10913 10917 10922 10924 10928 10933 10937 10941 10944 10948 10952 10955 10957 10960 10963 10967 10969 10971 10974 10977 10979 10981 10985 10987 10989 10991 10992 10993 10995 10997 10999 11002 11004 11005 11005 11005 11005
10745 10745 10746 10745 10746 10747 10749 10751 10752 10754 10756 10758 10760 10762 10764 10767 10770 10773 10777 10780 10783 10788 10792 10797 10802 10806 10809 10813 10817 10821 10826 10830 10835 10839 10842 10845 10848 10852 10858 10862 10868 10872 10875 10879 10883 10889 10896 10902 10904 10903 10904 10908 10912 10917 10920 10924 10929 10933 10937 10939 10942 10946 10949 10951 10954 10958 10961 10964 10966 10969 10972 10974 10976 10981 10984 10985 10988 10990 10991 10993 10994 10996 10999 11001 11002 11003 11002 11003
10731 10732 10733 10733 10734 10734 10736 10738 10739 10741 10743 10745 10748 10750 10752 10755 10758 10761 10764 10768 10771 10775 10780 10784 10790 10794 10797 10801 10806 10810 10814 10819 10825 10829 10833 10836 10839 10845 10850 10853 10859 10863 10867 10871 10876 10882 10889 10893 10893 10893 10897 10903 10907 10911 10914 10919 10924 10929 10932 10933 10937 10942 10944 10947 10950 10954 10957 10959 10961 10964 10967 10969 10973 10977 10980 10982 10984 10987 10990 10991 10992 10994 10996 10998 10999 11000 10999 11000
10719 10720 10720 10722 10722 10722 10723 10725 10727 10729 10731 10733 10735 10737 10740 10743 10746 10749 10752 10756 10759 10763 10768 10773 10778 10782 10785 10789 10794 10799 10802 10807 10814 10819 10822 10826 10832 10838 10840 10843 10849 10854 10858 10863 10867 10874 10880 10882 10883 10886 10891 10897 10901 10905 10909 10914 10919 10924 10926 10927 10931 10936 10939 10943 10945 10948 10952 10956 10958 10960 10963 10966 10970 10973 10975 10978 10979 10983 10986 10987 10988 10990 10992 10995 10997 10997 10996 10997
10707 10708 10709 10710 10711 10711 10712 10713 10715 10717 10719 10722 10723 10725 10728 10731 10734 10737 10740 10743 10746 10752 10755 10761 10766 10769 10773 10777 10781 10786 10790 10796 10803 10807 10811 10816 10822 10828 10831 10833 10839 10843 10848 10854 10859 10866 10870 10872 10875 10879 10884 10890 10895 10900 10904 10907 10912 10918 10920 10921 10924 10929 10934 10938 10941 10944 10949 10952 10955 10957 10960 10962 10965 10968 10970 10973 10974 10978 10981 10982 10982 10986 10990 10992 10993 10993 10992 10995
10696 10697 10698 10699 10700 10701 10701 10702 10704 10706 10708 10710 10711 10714 10716 10719 10722 10725 10729 10730 10733 10741 10743 10748 10755 10756 10761 10766 10768 10773 10778 10785 10792 10795 10799 10805 10811 10817 10821 10824 10828 10832 10838 10843 10850 10858 10863 10864 10867 10873 10878 10883 10889 10894 10898 10901 10907 10913 10915 10915 10918 10923 10929 10934 10937 10941 10945 10948 10951 10954 10956 10957 10960 10963 10965 10968 10971 10974 10976 10977 10978 10982 10986 10987 10989 10990 10990 10993
10686 10686 10687 10688 10688 10690 10690 10690 10692 10695 10697 10697 10700 10702 10703 10707 10710 10712 10717 10715 10718 10730 10732 10735 10741 10744 10749 10753 10755 10760 10766 10772 10778 10783 10788 10793 10799 10805 10809 10813 10818 10822 10827 10834 10843 10850 10854 10856 10859 10865 10870 10876 10883 10887 10891 10895 10900 10906 10908 10909 10912 10917 10923 10929 10933 10937 10940 10944 10947 10950 10952 10954 10957 10960 10961 10964 10967 10970 10972 10973 10975 10978 10982 10983 10985 10988 10989 10990
10676 10675 10676 10676 10676 10676 10677 10678 10679 10682 10684 10685 10687 10689 10690 10694 10695 10699 10704 10700 10704 10718 10722 10721 10725 10730 10736 10739 10742 10748 10753 10759 10765 10772 10776 10779 10787 10792 10796 10802 10807 10812 10818 10826 10834 10839 10844 10848 10851 10856 10861 10868 10874 10878 10882 10887 10893 10898 10899 10901 10906 10911 10919 10926 10930 10933 10936 10940 10945 10948 10949 10952 10955 10956 10958 10961 10963 10966 10968 10970 10973 10974 10977 10979 10981 10985 10987 10988
10667 10666 10665 10665 10664 10664 10665 10665 10667 10668 10670 10672 10673 10675 10677 10679 10681 10685 10687 10685 10691 10703 10707 10706 10709 10716 10722 10725 10728 10734 10741 10746 10753 10760 10762 10765 10775 10779 10782 10791 10797 10801 10808 10816 10823 10828 10835 10841 10842 10846 10854 10861 10866 10869 10874 10878 10884 10889 10891 10895 10901 10906 10913 10920 10925 10929 10932 10937 10942 10945 10947 10949 10951 10952 10955 10958 10960 10961 10963 10965 10968 10970 10973 10976 10978 10981 10984 10985
10659 10658 10656 10655 10654 10654 10654 10654 10656 10656 10657 10659 10659 10661 10663 10664 10668 10670 10670 10672 10679 10687 10690 10693 10698 10702 10706 10709 10714 10721 10728 10733 10739 10746 10748 10753 10762 10765 10769 10779 10784 10787 10795 10805 10813 10819 10825 10830 10833 10841 10849 10854 10857 10861 10865 10871 10878 10882 10884 10890 10895 10900 10907 10913 10919 10923 10927 10934 10939 10941 10943 10946 10948 10950 10952 10954 10956 10957 10958 10960 10964 10966 10968 10972 10974 10978 10981 10981
10653 10651 10649 10648 10646 10645 10645 10644 10645 10645 10646 10647 10648 10649 10650 10652 10654 10655 10657 10661 10667 10672 10675 10681 10685 10685 10688 10693 10700 10709 10714 10716 10725 10732 10735 10741 10748 10752 10756 10763 10767 10775 10786 10796 10803 10808 10813 10818 10825 10834 10840 10843 10849 10853 10858 10866 10872 10873 10877 10884 10889 10895 10902 10907 10912 10917 10924 10933 10936 10936 10939 10942 10945 10947 10948 10950 10952 10953 10955 10957 10960 10962 10964 10967 10970 10974 10977 10978
10645 10643 10642 10641 10639 10637 10636 10636 10636 10636 10636 10637 10638 10639 10640 10641 10643 10643 10646 10649 10655 10661 10662 10665 10668 10670 10676 10679 10683 10697 10700 10700 10712 10719 10721 10730 10735 10737 10741 10747 10757 10768 10775 10781 10788 10794 10800 10809 10817 10824 10828 10832 10839 10845 10850 10859 10863 10863 10870 10877 10882 10890 10896 10900 10906 10913 10923 10930 10930 10930 10934 10938 10942 10942 10943 10946 10948 10949 10951 10953 10957 10959 10960 10963 10966 10970 10974 10977
10638 10636 10635 10634 10631 10630 10628 10628 10628 10628 10629 10629 10629 10630 10630 10632 10633 10632 10634 10640 10645 10649 10648 10651 10655 10659 10665 10663 10670 10688 10685 10683 10699 10705 10707 10717 10720 10722 10727 10734 10746 10755 10758 10763 10774 10783 10791 10801 10809 10814 10819 10824 10831 10837 10842 10849 10853 10856 10864 10870 10877 10885 10889 10894 10901 10909 10920 10925 10922 10923 10929 10935 10939 10938 10940 10943 10944 10945 10947 10950 10954 10956 10957 10960 10964 10968 10972 10976
10630 10628 10626 10626 10624 10622 10621 10620 10620 10620 10621 10621 10621 10622 10622 10624 10624 10622 10625 10632 10635 10637 10639 10641 10643 10647 10651 10652 10662 10673 10666 10671 10689 10691 10693 10702 10705 10707 10711 10719 10732 10741 10745 10752 10763 10772 10780 10789 10796 10802 10807 10813 10821 10829 10833 10838 10841 10845 10854 10860 10867 10876 10882 10887 10894 10902 10912 10916 10915 10917 10925 10932 10934 10933 10935 10938 10940 10942 10943 10945 10949 10951 10954 10958 10963 10966 10970 10974
10621 10619 10617 10617 10616 10615 10613 10613 10613 10612 10613 10614 10614 10615 10616 10617 10616 10615 10619 10623 10623 10626 10631 10631 10633 10637 10640 10643 10651 10655 10652 10662 10676 10677 10678 10684 10688 10691 10693 10707 10725 10731 10735 10742 10749 10759 10768 10776 10783 10789 10796 10801 10810 10819 10822 10824 10829 10836 10844 10850 10858 10870 10877 10880 10886 10894 10902 10907 10908 10912 10921 10927 10927 10928 10931 10934 10937 10939 10941 10943 10945 10948 10952 10956 10960 10963 10967 10970
10612 10610 10609 10608 10607 10606 10605 10604 10605 10605 10605 10606 10606 10608 10609 10608 10609 10609 10611 10614 10615 10617 10621 10622 10625 10628 10630 10633 10638 10641 10642 10649 10660 10663 10664 10668 10674 10675 10680 10700 10717 10718 10721 10728 10733 10743 10754 10761 10767 10776 10784 10790 10799 10809 10812 10812 10819 10828 10836 10844 10854 10863 10869 10872 10877 10885 10894 10901 10904 10909 10916 10919 10920 10923 10926 10930 10934 10936 10937 10940 10942 10946 10950 10952 10955 10960 10964 10968
10603 10601 10600 10599 10598 10598 10597 10596 10597 10597 10597 10598 10598 10600 10600 10600 10603 10603 10603 10606 10608 10608 10611 10614 10617 10619 10620 10622 10624 10630 10633 10638 10648 10652 10650 10654 10659 10661 10670 10691 10705 10705 10707 10714 10718 10727 10739 10749 10756 10765 10773 10780 10788 10799 10803 10803 10809 10819 10828 10837 10845 10851 10858 10862 10866 10875 10887 10895 10899 10904 10910 10913 10916 10921 10922 10925 10930 10931 10933 10936 10938 10943 10946 10948 10953 10957 10960 10963
10596 10594 10592 10591 10590 10590 10590 10589 10589 10589 10588 10589 10590 10592 10592 10592 10595 10596 10596 10599 10600 10600 10603 10605 10608 10610 10610 10611 10615 10622 10625 10625 10633 10638 10637 10640 10645 10651 10662 10677 10691 10692 10691 10697 10705 10712 10725 10737 10744 10750 10760 10770 10778 10789 10795 10795 10800 10811 10820 10828 10833 10839 10847 10852 10857 10870 10882 10888 10892 10897 10902 10907 10912 10916 10916 10921 10926 10926 10928 10931 10935 10940 10943 10945 10951 10954 10955 10958
10590 10587 10585 10584 10583 10583 10582 10582 10582 10582 10581 10582 10583 10584 10585 10585 10586 10587 10589 10591 10591 10593 10595 10595 10599 10601 10601 10602 10606 10612 10614 10613 10620 10626 10626 10626 10631 10639 10649 10660 10673 10677 10675 10681 10691 10697 10708 10722 10730 10735 10745 10755 10763 10774 10782 10786 10792 10803 10811 10818 10824 10830 10838 10844 10851 10862 10872 10877 10884 10891 10897 10902 10906 10909 10911 10916 10920 10921 10924 10929 10932 10936 10939 10941 10945 10949 10951 10954
10584 10582 10580 10579 10578 10577 10576 10576 10576 10576 10575 10576 10576 10577 10578 10578 10579 10580 10581 10582 10583 10585 10586 10587 10590 10592 10592 10594 10596 10600 10604 10607 10611 10612 10608 10611 10619 10626 10636 10647 10659 10663 10663 10667 10675 10681 10691 10705 10717 10722 10728 10740 10751 10761 10771 10777 10782 10790 10799 10809 10816 10823 10831 10839 10845 10853 10862 10869 10877 10885 10891 10895 10899 10903 10905 10909 10913 10917 10921 10926 10929 10932 10935 10937 10940 10944 10947 10950
10579 10576 10574 10574 10572 10571 10571 10570 10570 10570 10570 10570 10570 10571 10572 10572 10573 10574 10574 10575 10576 10577 10578 10579 10581 10584 10584 10585 10587 10591 10594 10597 10600 10597 10594 10601 10610 10617 10627 10637 10644 10648 10650 10652 10657 10663 10674 10692 10706 10707 10710 10726 10740 10748 10758 10765 10768 10775 10785 10796 10805 10813 10822 10830 10839 10848 10857 10865 10870 10877 10883 10887 10890 10895 10898 10902 10908 10913 10916 10920 10924 10927 10931 10933 10936 10940 10945 10948
10574 10572 10570 10569 10567 10566 10566 10565 10565 10565 10565 10565 10565 10565 10566 10566 10567 10567 10568 10569 10570 10569 10571 10573 10573 10575 10576 10578 10580 10581 10583 10586 10588 10587 10586 10590 10598 10608 10616 10623 10629 10633 10635 10635 10638 10648 10664 10683 10695 10696 10699 10715 10727 10729 10738 10747 10751 10759 10770 10779 10790 10800 10807 10819 10832 10841 10849 10857 10862 10868 10875 10878 10880 10885 10891 10896 10902 10907 10910 10914 10918 10921 10925 10928 10931 10936 10940 10943
10568 10566 10565 10564 10563 10562 10561 10560 10560 10560 10560 10560 10560 10560 10560 10560 10561 10561 10562 10563 10564 10564 10565 10567 10566 10567 10569 10571 10572 10573 10574 10576 10577 10577 10578 10580 10585 10596 10604 10608 10615 10619 10618 10617 10622 10637 10654 10666 10676 10682 10686 10701 10714 10720 10730 10740 10742 10746 10756 10767 10780 10789 10796 10808 10821 10829 10835 10844 10851 10858 10865 10869 10871 10879 10886 10891 10897 10902 10905 10909 10914 10918 10921 10924 10928 10932 10936 10940
10563 10561 10560 10559 10558 10557 10556 10555 10555 10555 10555 10555 10555 10555 10555 10556 10555 10556 10557 10558 10558 10558 10559 10560 10560 10560 10562 10563 10563 10564 10565 10567 10567 10566 10569 10570 10572 10582 10589 10594 10602 10603 10599 10601 10610 10626 10640 10648 10660 10668 10671 10684 10699 10707 10717 10729 10735 10741 10750 10761 10772 10780 10785 10794 10805 10811 10818 10829 10837 10844 10854 10860 10863 10872 10881 10886 10891 10896 10900 10905 10911 10915 10917 10919 10924 10929 10932 10936
10558 10557 10556 10554 10554 10553 10552 10551 10551 10550 10550 10550 10550 10550 10550 10551 10551 10551 10552 10552 10553 10553 10553 10554 10554 10554 10555 10556 10556 10556 10556 10558 10558 10557 10560 10561 10562 10570 10577 10582 10591 10589 10584 10589 10600 10613 10625 10636 10647 10654 10658 10670 10683 10688 10696 10709 10720 10731 10739 10748 10759 10766 10772 10785 10795 10799 10807 10821 10828 10836 10847 10853 10856 10866 10875 10879 10884 10890 10895 10901 10905 10908 10911 10914 10919 10922 10927 10933
10554 10552 10551 10550 10549 10549 10548 10547 10547 10546 10546 10546 10546 10546 10546 10546 10546 10546 10546 10547 10548 10548 10547 10548 10548 10548 10548 10549 10549 10549 10548 10548 10548 10549 10552 10552 10553 10560 10566 10572 10578 10576 10573 10581 10590 10599 10611 10622 10632 10640 10647 10657 10666 10673 10683 10695 10707 10715 10720 10731 10745 10752 10760 10773 10783 10791 10804 10815 10820 10831 10842 10844 10848 10859 10867 10871 10878 10883 10888 10893 10897 10902 10905 10908 10913 10919 10926 10933
10551 10549 10547 10546 10545 10545 10544 10543 10543 10542 10542 10542 10541 10541 10541 10541 10542 10541 10542 10542 10542 10542 10542 10542 10542 10542 10542 10541 10541 10541 10541 10540 10540 10541 10543 10544 10545 10549 10554 10560 10563 10564 10567 10573 10578 10587 10599 10609 10618 10626 10634 10643 10651 10662 10675 10689 10701 10706 10707 10716 10728 10741 10755 10770 10782 10794 10803 10807 10815 10827 10833 10833 10840 10852 10858 10864 10871 10876 10882 10888 10893 10895 10897 10901 10909 10915 10922 10929
10547 10545 10543 10542 10541 10541 10540 10539 10539 10538 10538 10537 10537 10537 10537 10537 10537 10537 10537 10537 10536 10537 10536 10536 10535 10535 10535 10535 10534 10534 10533 10532 10532 10533 10534 10535 10535 10537 10542 10547 10550 10552 10558 10562 10566 10574 10585 10596 10606 10615 10622 10629 10636 10648 10662 10675 10687 10694 10696 10702 10714 10732 10751 10768 10783 10794 10797 10803 10816 10823 10821 10824 10836 10847 10854 10862 10867 10869 10875 10881 10883 10885 10891 10899 10906 10911 10918 10921
10544 10542 10540 10539 10537 10537 10536 10535 10535 10534 10534 10533 10533 10533 10532 10532 10532 10532 10531 10532 10531 10530 10530 10530 10529 10528 10528 10528 10527 10527 10527 10525 10524 10525 10524 10523 10525 10527 10531 10534 10538 10542 10547 10551 10555 10561 10572 10585 10593 10601 10610 10616 10621 10633 10649 10661 10671 10678 10682 10693 10710 10726 10738 10753 10769 10778 10782 10796 10810 10810 10809 10817 10830 10838 10845 10852 10857 10860 10865 10869 10871 10877 10886 10894 10899 10905 10911 10912
10540 10538 10537 10535 10534 10533 10532 10531 10531 10530 10530 10529 10529 10528 10528 10528 10527 10527 10526 10526 10525 10524 10524 10523 10523 10522 10521 10521 10520 10520 10519 10518 10516 10516 10514 10512 10514 10518 10520 10523 10528 10532 10535 10539 10542 10548 10560 10572 10579 10588 10598 10604 10611 10625 10640 10652 10662 10668 10674 10687 10703 10717 10729 10743 10755 10762 10770 10786 10796 10796 10800 10812 10823 10830 10835 10840 10848 10852 10853 10858 10865 10873 10883 10890 10895 10900 10904 10906
10537 10535 10534 10532 10531 10530 10529 10528 10527 10527 10526 10525 10525 10524 10524 10523 10523 10522 10521 10520 10519 10518 10517 10516 10516 10515 10515 10515 10514 10513 10512 10511 10509 10507 10505 10503 10504 10507 10510 10512 10517 10521 10523 10526 10530 10537 10548 10558 10566 10576 10586 10595 10602 10612 10626 10639 10647 10655 10668 10681 10692 10704 10721 10735 10742 10748 10759 10774 10783 10787 10794 10806 10814 10821 10826 10833 10840 10841 10843 10851 10861 10870 10880 10888 10893 10898 10902 10906
10534 10532 10531 10529 10528 10527 10526 10525 10524 10523 10523 10522 10521 10520 10519 10519 10518 10517 10516 10515 10514 10512 10511 10510 10510 10510 10509 10509 10508 10507 10505 10504 10502 10500 10497 10495 10495 10497 10500 10502 10506 10510 10512 10515 10521 10529 10538 10546 10555 10563 10574 10585 10590 10596 10610 10622 10629 10644 10663 10675 10682 10693 10708 10720 10730 10739 10749 10760 10769 10776 10786 10795 10800 10806 10816 10824 10829 10832 10836 10844 10854 10863 10873 10881 10888 10893 10896 10901